COSMOS 1579

导读

COSMOS 1579(宇宙1579)是独联体(CIS,继承自苏联航天体系)发射的宇宙系列卫星,于1984年6月29日08:00发射入轨。作为苏联/俄罗斯“宇宙号”大型卫星家族的一员,该系列多以军用任务、航天技术试验为主,COSMOS 1579延续了这一序列的研发定位,服役期间完成了既定太空任务,是冷战时期苏联航天活动的典型产物。

基本信息
目录编号:
15085
目录名称:
COSMOS 1579
国际标识:
1984-069A
轨道中心:
EARTH
卫星名称:
COSMOS 1579
卫星全名:
--
卫星状态:
在轨 (已飞行15417 天)
发射日期:
1984-06-29 UTC
国别 :
俄罗斯(独联体) (CIS)
星等 :
--
该卫星已列入 空间交会检测服务 Space Conjunction Data Service (SCDS) ,当前飞行风险评估等级: 无高风险
轨道信息
数据来源 国际轨道数据 AOE轨道数据
星历时间 2026-09-14T05:10:09+0800
4小时前
查看轨道信息
2026-09-13T02:00:00+0800
1天前
查看轨道信息
半长轴 7320.033km 7320.035km
偏心率 0.0049419 0.0049345
轨道倾角 65.050° 65.050°
近地点辐角 343.614° 343.975°
升交点赤经 213.946° 216.883°
平近点角 16.332° 126.999°
近地点 905.721km 905.777km
远地点 978.071km 978.019km
周期 103.879分钟 103.879分钟
每日圈数 13.862235 13.86223
详细信息
使用方式:
暂无
2D轨道图
3D轨道图
轨道高度分析图
轨道倾角分析图
轨道综合分析图
查看轨道综合分析图
与全量物体交会距离演化趋势
与全量物体交会风险概率演化趋势